Branson, MO

4:21 AM CDT on September 23, 2017 (GMT -0500)
Branson

Weather History for KBBG - March, 2013

Change the Weather History Date:

Thursday, March 7, 2013

  Actual Average (KHRO) Record (KHRO)
Temperature  
Mean Temperature 46 °F -  
Max Temperature 59 °F 57 °F 82 °F (1974)
Min Temperature 32 °F 35 °F 4 °F (1920)
Degree Days  
Heating Degree Days 20    
Moisture  
Dew Point 25 °F    
Average Humidity 54    
Maximum Humidity 75    
Minimum Humidity 25    
Precipitation  
Precipitation 0.00 in - - ()
Sea Level Pressure  
Sea Level Pressure 30.25 in    
Wind  
Wind Speed 7 mph (ESE)    
Max Wind Speed 15 mph    
Max Gust Speed 18 mph    
Visibility 10 miles    
Events      
Averages and records for this station are not official NWS values.
T = Trace of Precipitation, MM = Missing Value Source: NWS Daily Summary

Daily Weather History Graph

Daily Weather History Graph

Search for Another Location

Airport or City:

Trip Planner

Search our weather history database for the weather conditions in past years. The results will help you decide how hot, cold, wet, or windy it might be!

Date:

Astronomy

Mar. 07, 2013 Rise Set
Actual Time 6:34 AM CST 6:13 PM CST
Civil Twilight 6:08 AM CST 6:39 PM CST
Nautical Twilight 5:39 AM CST 7:08 PM CST
Astronomical Twilight 5:09 AM CST 7:38 PM CST
Moon 3:29 AM CST (3/7) 2:07 PM CST (3/7)
Length of Visible Light 12h 30m
Length of Day
11h 38m
Waning Crescent, 20% of the Moon is Illuminated
Mar 7
Waning Crescent
Mar 11
New
Mar 19
First Quarter
Mar 27
Full
Apr 2
Last Quarter

Hourly Weather History & Observations

Time (CST) Temp. Windchill Dew Point Humidity Pressure Visibility Wind Dir Wind Speed Gust Speed Precip Events Conditions
12:15 AM 35.6 °F 30.7 °F 21.2 °F 56% 30.26 in 10.0 mi East 5.8 mph - N/A   Scattered Clouds
12:35 AM 35.6 °F 31.7 °F 23.0 °F 60% 30.26 in 10.0 mi East 4.6 mph - N/A   Mostly Cloudy
12:55 AM 35.6 °F 31.7 °F 23.0 °F 60% 30.26 in 10.0 mi ESE 4.6 mph - N/A   Mostly Cloudy
1:15 AM 35.6 °F 30.7 °F 23.0 °F 60% 30.27 in 10.0 mi East 5.8 mph - N/A   Mostly Cloudy
1:35 AM 35.6 °F 32.8 °F 23.0 °F 60% 30.28 in 10.0 mi ESE 3.5 mph - N/A   Overcast
1:55 AM 35.6 °F 31.7 °F 23.0 °F 60% 30.28 in 10.0 mi ESE 4.6 mph - N/A   Mostly Cloudy
2:15 AM 35.6 °F 32.8 °F 23.0 °F 60% 30.28 in 10.0 mi ENE 3.5 mph - N/A   Mostly Cloudy
2:35 AM 33.8 °F 28.6 °F 23.0 °F 65% 30.28 in 10.0 mi East 5.8 mph - N/A   Overcast
2:55 AM 33.8 °F 29.6 °F 23.0 °F 65% 30.29 in 10.0 mi East 4.6 mph - N/A   Mostly Cloudy
3:15 AM 33.8 °F 27.7 °F 23.0 °F 65% 30.28 in 10.0 mi East 6.9 mph - N/A   Mostly Cloudy
3:35 AM 33.8 °F 27.0 °F 23.0 °F 65% 30.27 in 10.0 mi ESE 8.1 mph - N/A   Mostly Cloudy
3:55 AM 32.0 °F 24.8 °F 23.0 °F 69% 30.27 in 10.0 mi ESE 8.1 mph - N/A   Scattered Clouds
4:15 AM 32.0 °F 26.4 °F 23.0 °F 69% 30.28 in 10.0 mi ESE 5.8 mph - N/A   Partly Cloudy
4:35 AM 32.0 °F 24.8 °F 23.0 °F 69% 30.28 in 10.0 mi ESE 8.1 mph - N/A   Scattered Clouds
4:55 AM 32.0 °F 25.6 °F 23.0 °F 69% 30.28 in 10.0 mi ESE 6.9 mph - N/A   Mostly Cloudy
5:15 AM 32.0 °F 24.2 °F 23.0 °F 69% 30.27 in 10.0 mi ESE 9.2 mph - N/A   Overcast
6:45 AM 32.0 °F 26.4 °F 23.0 °F 69% 30.27 in 10.0 mi SE 5.8 mph - N/A   Scattered Clouds
7:45 AM 33.8 °F 27.7 °F 24.8 °F 70% 30.30 in 10.0 mi ESE 6.9 mph - N/A   Partly Cloudy
10:45 AM 48.2 °F - 24.8 °F 40% 30.30 in 10.0 mi SSE 10.4 mph - N/A   Clear
11:45 AM 50.0 °F - 26.6 °F 40% 30.29 in 10.0 mi SE 10.4 mph - N/A   Clear
12:45 PM 53.6 °F - 24.8 °F 33% 30.27 in 10.0 mi SSE 8.1 mph - N/A   Clear
1:53 PM 55.4 °F - 23.0 °F 29% 30.23 in 10.0 mi SSE 10.4 mph - N/A   Clear
2:58 PM 59.0 °F - 41.0 °F 51% 30.21 in 10.0 mi SSE 8.1 mph - N/A   Clear
3:55 PM 59.0 °F - 23.0 °F 25% 30.20 in 10.0 mi ESE 12.7 mph - N/A   Clear
4:52 PM 57.2 °F - 23.0 °F 27% 30.19 in 10.0 mi ESE 11.5 mph 17.3 mph N/A   Clear
5:50 PM 55.4 °F - 24.8 °F 31% 30.18 in 10.0 mi SE 11.5 mph - N/A   Clear
6:45 PM 51.8 °F - 24.8 °F 35% 30.18 in 10.0 mi SE 9.2 mph 15.0 mph N/A   Clear
7:45 PM 50.0 °F - 26.6 °F 40% 30.19 in 10.0 mi SE 13.8 mph 18.4 mph N/A   Clear
8:15 PM 48.2 °F - 26.6 °F 43% 30.20 in 10.0 mi SE 15.0 mph 18.4 mph N/A   Partly Cloudy
8:35 PM 48.2 °F - 28.4 °F 46% 30.20 in 10.0 mi SE 13.8 mph - N/A   Scattered Clouds
8:45 PM 48.2 °F - 28.4 °F 46% 30.20 in 10.0 mi SE 13.8 mph - N/A   Clear
8:55 PM 46.4 °F 40.7 °F 28.4 °F 50% 30.20 in 10.0 mi SE 12.7 mph - N/A   Mostly Cloudy
9:15 PM 46.4 °F 41.1 °F 28.4 °F 50% 30.21 in 10.0 mi SE 11.5 mph - N/A   Overcast
9:35 PM 46.4 °F 41.5 °F 28.4 °F 50% 30.22 in 10.0 mi SE 10.4 mph - N/A   Overcast
9:55 PM 44.6 °F 39.2 °F 28.4 °F 53% 30.22 in 10.0 mi SE 10.4 mph - N/A   Overcast
10:15 PM 44.6 °F 38.8 °F 28.4 °F 53% 30.23 in 10.0 mi SE 11.5 mph - N/A   Overcast
10:55 PM 42.8 °F 38.0 °F 28.4 °F 57% 30.25 in 10.0 mi ESE 8.1 mph - N/A   Overcast
11:15 PM 41.0 °F 36.4 °F 30.2 °F 65% 30.25 in 10.0 mi ESE 6.9 mph - N/A   Overcast
11:55 PM 39.2 °F 32.5 °F 32.0 °F 75% 30.25 in 10.0 mi ESE 10.4 mph - N/A   Mostly Cloudy